User: anonymous   Login
Location: Unspecified
(0.0000°N, 0.0000°E)
Time: 15:33:19
(UTC+01:00)
Language:

Landsat 4 - Orbit

View from above orbital plane
View from above orbital plane
View from above satellite
View from above satellite

Ground track
Ground track

The orbit data is extracted from the following two-line orbital elements,

1 13367U 82072A   14332.16482958  .00006036  00000-0  36004-3 0  8007
2 13367 098.1942 046.9340 0015737 124.7474 289.0768 15.11468490743972
Epoch (UTC): 28 November 2014 03:57:21
Eccentricity: 0.0015737
inclination: 98.1942°
perigee height: 521 km
apogee height: 542 km
right ascension of ascending node: 46.9340°
argument of perigee: 124.7474°
revolutions per day: 15.11468490
mean anomaly at epoch: 289.0768°
orbit number at epoch: 74397

The dashed part of the orbit path shows where the satellite is in the earth's shadow,  

DLR